MARINA

Last updated on Fri Sep 11 2026 00:03:13 GMT+0000 (Coordinated Universal Time)

1 69920U 26156BD 26253.46086157 .00001680 00000+0 17060-3 0 9992 2 69920 97.7449 152.8453 0006199 307.0994 52.9658 14.92148036 9713
UTC large
Height (km)
Speed (km/s)
/
Latitude / Longitude
Inclination (degrees)
Orbital Period (minutes)
Azimuth
Elevation
Range (km)
Doppler Factor

Next 0 passes for location: London (51.5072 / 0.1276)

No passes found over London.
MARINA